Minneapolis, MN

1:05 AM CDT on April 24, 2017 (GMT -0500)
Minneapolis-Saint Paul International

Weather History for KMSP - January, 2013

Change the Weather History Date:

Thursday, January 10, 2013

  Actual Average Record
Temperature  
Mean Temperature 34 °F 15 °F  
Max Temperature 39 °F 23 °F 52 °F (2012)
Min Temperature 28 °F 7 °F -30 °F (1886)
Degree Days  
Heating Degree Days 32 50  
Month to date heating degree days 493  
Since 1 July heating degree days 3516  
Cooling Degree Days 0 0  
Month to date cooling degree days 0  
Year to date cooling degree days 0  
Moisture  
Dew Point 27 °F    
Average Humidity 78    
Maximum Humidity 100    
Minimum Humidity 45    
Precipitation  
Precipitation 0.24 in 0.03 in 1.13 in (1975)
Month to date precipitation 0.32  
Year to date precipitation 0.32  
Snow  
Snow 0.00 in 0.50 in 4.00 in (1975)
Month to date snowfall 4.0  
Since 1 July snowfall 25.8  
Snow Depth 2.00 in    
Sea Level Pressure  
Sea Level Pressure 30.04 in    
Wind  
Wind Speed 10 mph (SE)    
Max Wind Speed 18 mph    
Max Gust Speed 22 mph    
Visibility 7 miles    
Events Rain    
T = Trace of Precipitation, MM = Missing Value Source: NWS Daily Summary

Daily Weather History Graph

Daily Weather History Graph

Search for Another Location

Airport or City:

Trip Planner

Search our weather history database for the weather conditions in past years. The results will help you decide how hot, cold, wet, or windy it might be!

Date:

Astronomy

Jan. 10, 2013 Rise Set
Actual Time 7:49 AM CST 4:52 PM CST
Civil Twilight 7:16 AM CST 5:25 PM CST
Nautical Twilight 6:39 AM CST 6:01 PM CST
Astronomical Twilight 6:04 AM CST 6:37 PM CST
Moon 6:29 AM CST (1/10) 4:01 PM CST (1/10)
Length of Visible Light 10h 08m
Length of Day
9h 02m
Waning Crescent, 2% of the Moon is Illuminated
Jan 10
Waning Crescent
Jan 11
New
Jan 18
First Quarter
Jan 26
Full
Feb 3
Last Quarter

Hourly Weather History & Observations

Time (CST) Temp. Windchill Dew Point Humidity Pressure Visibility Wind Dir Wind Speed Gust Speed Precip Events Conditions
12:53 AM 27.0 °F 18.7 °F 19.9 °F 75% 30.34 in 10.0 mi SSE 8.1 mph - N/A   Clear
1:53 AM 25.0 °F 17.1 °F 19.9 °F 81% 30.35 in 10.0 mi ESE 6.9 mph - N/A   Clear
2:53 AM 25.0 °F 16.3 °F 21.0 °F 85% 30.34 in 10.0 mi ESE 8.1 mph - N/A   Mostly Cloudy
3:53 AM 24.1 °F 14.4 °F 21.0 °F 88% 30.32 in 10.0 mi ESE 9.2 mph - N/A   Mostly Cloudy
4:53 AM 27.0 °F 18.0 °F 21.9 °F 81% 30.30 in 10.0 mi ESE 9.2 mph - N/A   Clear
5:53 AM 30.0 °F 22.4 °F 23.0 °F 75% 30.29 in 10.0 mi SE 8.1 mph - N/A   Clear
6:53 AM 30.9 °F 23.5 °F 23.0 °F 72% 30.29 in 10.0 mi SSE 8.1 mph - N/A   Partly Cloudy
7:53 AM 32.0 °F 26.4 °F 23.0 °F 69% 30.29 in 10.0 mi Variable 5.8 mph - N/A   Partly Cloudy
8:53 AM 30.0 °F 23.2 °F 23.0 °F 75% 30.28 in 10.0 mi ESE 6.9 mph - N/A   Partly Cloudy
9:53 AM 33.1 °F 26.1 °F 25.0 °F 72% 30.26 in 10.0 mi SE 8.1 mph - N/A   Scattered Clouds
10:53 AM 35.1 °F 28.6 °F 25.0 °F 67% 30.23 in 10.0 mi SSE 8.1 mph - N/A   Mostly Cloudy
11:53 AM 37.9 °F 32.1 °F 24.1 °F 57% 30.18 in 10.0 mi SSE 8.1 mph - N/A   Mostly Cloudy
12:35 PM 39.2 °F 31.6 °F 23.0 °F 52% 30.11 in 10.0 mi SSE 12.7 mph - N/A   Mostly Cloudy
12:53 PM 39.0 °F 31.8 °F 23.0 °F 53% 30.12 in 10.0 mi SE 11.5 mph - N/A   Mostly Cloudy
1:32 PM 39.2 °F 32.0 °F 21.2 °F 49% 30.05 in 10.0 mi ESE 11.5 mph - N/A   Mostly Cloudy
1:53 PM 37.9 °F 30.0 °F 24.1 °F 57% 30.08 in 10.0 mi ESE 12.7 mph - N/A   Overcast
2:53 PM 37.9 °F 30.0 °F 21.9 °F 53% 30.06 in 10.0 mi SE 12.7 mph - N/A   Overcast
3:53 PM 37.0 °F 28.5 °F 21.9 °F 54% 30.03 in 10.0 mi ESE 13.8 mph - N/A   Overcast
4:53 PM 37.0 °F 27.0 °F 24.1 °F 59% 30.00 in 7.0 mi SE 18.4 mph 21.9 mph 0.01 in Rain Light Rain
5:53 PM 36.0 °F 27.1 °F 28.0 °F 73% 29.97 in 7.0 mi ESE 13.8 mph 19.6 mph 0.03 in Rain Light Rain
6:41 PM 33.8 °F 24.8 °F 30.2 °F 87% 29.90 in 5.0 mi ESE 12.7 mph - 0.07 in Rain Rain
6:53 PM 34.0 °F 24.6 °F 30.0 °F 85% 29.92 in 4.0 mi ESE 13.8 mph - 0.09 in Rain Light Rain
7:53 PM 34.0 °F 25.0 °F 30.9 °F 89% 29.87 in 7.0 mi ESE 12.7 mph - 0.06 in Rain Light Rain
8:23 PM 33.8 °F 25.3 °F 32.0 °F 93% 29.84 in 6.0 mi SE 11.5 mph - 0.04 in Rain Rain
8:53 PM 33.1 °F 23.9 °F 32.0 °F 96% 29.83 in 6.0 mi SE 12.7 mph - 0.08 in Rain Light Rain
9:16 PM 33.8 °F 24.8 °F 32.0 °F 93% 29.79 in 6.0 mi SE 12.7 mph - 0.00 in   Light Drizzle
9:41 PM 33.8 °F 23.5 °F 33.8 °F 100% 29.77 in 4.0 mi SE 16.1 mph - 0.00 in Rain Light Rain
9:53 PM 34.0 °F 25.5 °F 33.1 °F 96% 29.79 in 5.0 mi SE 11.5 mph - 0.00 in   Overcast
10:24 PM 33.8 °F 26.4 °F 33.8 °F 100% 29.76 in 4.0 mi SSE 9.2 mph - N/A   Overcast
10:40 PM 33.8 °F 26.4 °F 33.8 °F 100% 29.76 in 2.5 mi SSE 9.2 mph - N/A   Overcast
10:53 PM 33.8 °F 27.7 °F 33.8 °F 100% 29.76 in 1.5 mi SE 6.9 mph - N/A   Light Drizzle
11:16 PM 33.8 °F 26.4 °F 33.8 °F 100% 29.74 in 1.2 mi SE 9.2 mph - N/A   Light Drizzle
11:50 PM 33.8 °F 24.8 °F 33.8 °F 100% 29.74 in 1.5 mi SSE 12.7 mph - 0.00 in   Light Drizzle
11:53 PM 35.1 °F 26.4 °F 35.1 °F 100% 29.77 in 1.5 mi SSE 12.7 mph - 0.00 in   Light Drizzle